Overview Statistics Trail Chart Weather Telemetry Raw packets
 

This is the latest recevied weather packets stored in our database for station/object HB9FHL-13. If no packets are shown the sender has not sent any weather packets the latest 10 day(s).

<< 37 38 39 40 41 42 43 >>
Time Temp. Humidity Pressure Rain* Wind** Luminosity Snow
1788464376 21.11° C - 1025.1 hPa 0 mm - - -
1788464320 21.11° C - 1025.1 hPa 0 mm - - -
1788464019 22.22° C - 1026.5 hPa 0 mm - - -
1788463719 21.67° C - 1021.1 hPa 0 mm - - -
1788463418 22.22° C - 1028.5 hPa 0 mm - - -
1788463118 22.22° C - 1023.5 hPa 0 mm - - -
1788462817 22.22° C - 1027.5 hPa 0 mm - - -
1788462517 22.22° C - 1023.3 hPa 0 mm - - -
1788462216 22.22° C - 1025.6 hPa 0 mm - - -
1788461914 22.22° C - 1025.4 hPa 0 mm - - -
1788461614 22.78° C - 1024.3 hPa 0 mm - - -
1788461058 22.78° C - 1023.2 hPa 0 mm - - -
1788461013 22.78° C - 1023.2 hPa 0 mm - - -
1788460712 21.11° C - 1026 hPa 0 mm - - -
1788460412 22.22° C - 1021.5 hPa 0 mm - - -
1788460111 21.67° C - 1024.2 hPa 0 mm - - -
1788459811 23.33° C - 1022.6 hPa 0 mm - - -
1788459566 22.78° C - 1026.7 hPa 0 mm - - -
1788459510 22.78° C - 1026.7 hPa 0 mm - - -
1788459210 22.78° C - 1022.5 hPa 0 mm - - -
1788458909 22.22° C - 1025.2 hPa 0 mm - - -
1788458609 22.78° C - 1021.2 hPa 0 mm - - -
1788458308 22.22° C - 1025.3 hPa 0 mm - - -
1788458008 22.22° C - 1022.6 hPa 0 mm - - -
1788457400 22.78° C - 1024.1 hPa 0 mm - - -

* Rain since midnight (hover to see other rain measurements)
** Current wind speed in m/s (hover to see current wind gust speed)